Location: Auckland
(36.8670°S, 174.7670°E)
Time: 12:55:02
(UTC+12:00)

A-11 Canister half - Pass Details

Date: 26 July 2019
Orbit: 1526 x 1683 km, 47.3° (Epoch: 19 August)

Event Time Altitude Azimuth Distance (km) Brightness Sun altitude
Rises 05:32:31 0° 343° (NNW) 4,663 11.5 -22.4°
Reaches altitude 10° 05:35:58 10° 353° (N) 3,685 11.0 -21.7°
Maximum altitude 05:43:47 31° 51° (NE) 2,423 10.6 -20.1°
Drops below altitude 10° 05:51:42 10° 108° (ESE) 3,751 11.9 -18.6°
Sets 05:55:14 0° 118° (ESE) 4,759 12.4 -17.9°
